TimeMDT,TemperatureF,Dew PointF,Humidity,Sea Level PressureIn,VisibilityMPH,Wind Direction,Wind SpeedMPH,Gust SpeedMPH,PrecipitationIn,Events,Conditions,WindDirDegrees,DateUTC
12:15 AM,44.6,33.8,66,30.21,10.0,NW,4.6,-,N/A,,Clear,320,2013-08-06 06:15:00
12:35 AM,44.6,33.8,66,30.21,10.0,West,5.8,-,N/A,,Clear,260,2013-08-06 06:35:00
12:55 AM,44.6,33.8,66,30.21,10.0,WNW,5.8,-,N/A,,Clear,300,2013-08-06 06:55:00
1:15 AM,44.6,33.8,66,30.21,10.0,WNW,3.5,-,N/A,,Clear,290,2013-08-06 07:15:00
1:35 AM,42.8,32.0,66,30.21,10.0,WNW,5.8,-,N/A,,Clear,290,2013-08-06 07:35:00
1:55 AM,42.8,33.8,70,30.21,10.0,WNW,5.8,-,N/A,,Clear,290,2013-08-06 07:55:00
2:15 AM,41.0,33.8,76,30.21,10.0,West,5.8,-,N/A,,Clear,280,2013-08-06 08:15:00
2:35 AM,41.0,33.8,76,30.21,10.0,WNW,5.8,-,N/A,,Clear,300,2013-08-06 08:35:00
2:55 AM,41.0,33.8,76,30.21,10.0,West,5.8,-,N/A,,Clear,270,2013-08-06 08:55:00
3:15 AM,41.0,33.8,76,30.20,10.0,WNW,8.1,-,N/A,,Clear,290,2013-08-06 09:15:00
3:35 AM,39.2,32.0,75,30.20,10.0,West,5.8,-,N/A,,Clear,280,2013-08-06 09:35:00
3:55 AM,37.4,32.0,81,30.19,10.0,NW,5.8,-,N/A,,Clear,320,2013-08-06 09:55:00
4:15 AM,39.2,32.0,75,30.20,10.0,NW,4.6,-,N/A,,Clear,310,2013-08-06 10:15:00
4:35 AM,37.4,32.0,81,30.21,10.0,West,6.9,-,N/A,,Clear,270,2013-08-06 10:35:00
4:55 AM,37.4,32.0,81,30.20,10.0,WNW,5.8,-,N/A,,Clear,300,2013-08-06 10:55:00
5:15 AM,37.4,32.0,81,30.21,10.0,WSW,3.5,-,N/A,,Clear,240,2013-08-06 11:15:00
5:35 AM,37.4,32.0,81,30.21,10.0,WNW,5.8,-,N/A,,Clear,300,2013-08-06 11:35:00
5:55 AM,35.6,32.0,87,30.21,10.0,West,9.2,-,N/A,,Clear,270,2013-08-06 11:55:00
6:15 AM,37.4,32.0,81,30.21,10.0,West,8.1,-,N/A,,Clear,270,2013-08-06 12:15:00
6:35 AM,39.2,32.0,75,30.22,10.0,NW,8.1,-,N/A,,Clear,310,2013-08-06 12:35:00
6:55 AM,41.0,32.0,70,30.22,10.0,West,5.8,-,N/A,,Clear,280,2013-08-06 12:55:00
7:15 AM,41.0,32.0,70,30.23,10.0,West,6.9,-,N/A,,Clear,270,2013-08-06 13:15:00
7:35 AM,44.6,32.0,61,30.23,10.0,WNW,6.9,-,N/A,,Clear,300,2013-08-06 13:35:00
7:55 AM,46.4,32.0,57,30.23,10.0,WNW,6.9,-,N/A,,Clear,300,2013-08-06 13:55:00
8:15 AM,51.8,32.0,47,30.23,10.0,WNW,6.9,-,N/A,,Clear,300,2013-08-06 14:15:00
8:35 AM,-9999,-9999,N/A,-9999,-9999.0,North,-9999.0,-,N/A,,Unknown,0,2013-08-06 14:35:00
8:55 AM,59.0,35.6,42,30.24,-9999.0,WNW,3.5,-,N/A,,Clear,290,2013-08-06 14:55:00
9:15 AM,62.6,33.8,34,30.23,10.0,NNW,3.5,-,N/A,,Clear,330,2013-08-06 15:15:00
9:35 AM,64.4,33.8,32,30.23,10.0,Calm,Calm,-,N/A,,Clear,0,2013-08-06 15:35:00
9:55 AM,68.0,32.0,26,30.24,10.0,Calm,Calm,-,N/A,,Clear,0,2013-08-06 15:55:00
10:35 AM,71.6,30.2,22,30.24,-9999.0,NNE,3.5,-,N/A,,Unknown,20,2013-08-06 16:35:00
10:55 AM,71.6,30.2,22,30.24,10.0,North,4.6,-,N/A,,Clear,360,2013-08-06 16:55:00
11:15 AM,73.4,30.2,20,30.23,10.0,NW,13.8,19.6,N/A,,Clear,320,2013-08-06 17:15:00
11:35 AM,75.2,28.4,18,30.23,10.0,NNW,11.5,18.4,N/A,,Clear,330,2013-08-06 17:35:00
11:55 AM,77.0,28.4,17,30.23,10.0,NW,17.3,21.9,N/A,,Clear,310,2013-08-06 17:55:00
12:15 PM,78.8,28.4,16,30.22,10.0,WNW,12.7,24.2,N/A,,Clear,290,2013-08-06 18:15:00
12:35 PM,78.8,26.6,15,30.22,10.0,WNW,21.9,27.6,N/A,,Scattered Clouds,290,2013-08-06 18:35:00
12:55 PM,78.8,23.0,13,30.22,10.0,NW,24.2,31.1,N/A,,Scattered Clouds,310,2013-08-06 18:55:00
1:15 PM,78.8,23.0,13,30.21,10.0,WNW,24.2,34.5,N/A,,Clear,300,2013-08-06 19:15:00
1:35 PM,78.8,23.0,13,30.21,10.0,WNW,20.7,27.6,N/A,,Clear,290,2013-08-06 19:35:00
1:55 PM,80.6,23.0,12,30.21,10.0,West,13.8,25.3,N/A,,Clear,280,2013-08-06 19:55:00
2:15 PM,80.6,24.8,13,30.20,10.0,WNW,15.0,28.8,N/A,,Clear,290,2013-08-06 20:15:00
2:35 PM,80.6,24.8,13,30.21,10.0,WNW,21.9,27.6,N/A,,Clear,290,2013-08-06 20:35:00
2:55 PM,80.6,24.8,13,30.20,10.0,WNW,12.7,31.1,N/A,,Scattered Clouds,290,2013-08-06 20:55:00
3:15 PM,80.6,24.8,13,30.20,10.0,NW,18.4,26.5,N/A,,Clear,310,2013-08-06 21:15:00
3:35 PM,80.6,26.6,14,30.19,10.0,West,15.0,26.5,N/A,,Clear,280,2013-08-06 21:35:00
3:55 PM,80.6,26.6,14,30.19,10.0,WNW,13.8,20.7,N/A,,Clear,300,2013-08-06 21:55:00
4:15 PM,80.6,26.6,14,30.19,10.0,West,12.7,26.5,N/A,,Scattered Clouds,270,2013-08-06 22:15:00
4:35 PM,80.6,24.8,13,30.19,10.0,West,15.0,24.2,N/A,,Clear,280,2013-08-06 22:35:00
4:55 PM,80.6,23.0,12,30.19,10.0,WNW,18.4,24.2,N/A,,Clear,290,2013-08-06 22:55:00
5:15 PM,80.6,23.0,12,30.18,10.0,West,18.4,24.2,N/A,,Clear,280,2013-08-06 23:15:00
5:35 PM,80.6,23.0,12,30.18,10.0,WNW,13.8,25.3,N/A,,Clear,300,2013-08-06 23:35:00
5:55 PM,80.6,23.0,12,30.18,10.0,West,15.0,24.2,N/A,,Clear,260,2013-08-06 23:55:00
6:15 PM,78.8,21.2,12,30.18,10.0,West,18.4,23.0,N/A,,Clear,280,2013-08-07 00:15:00
6:35 PM,78.8,19.4,11,30.18,10.0,NW,18.4,24.2,N/A,,Clear,310,2013-08-07 00:35:00
6:55 PM,78.8,19.4,11,30.18,10.0,West,13.8,23.0,N/A,,Clear,280,2013-08-07 00:55:00
7:15 PM,77.0,19.4,12,30.18,10.0,West,11.5,18.4,N/A,,Clear,280,2013-08-07 01:15:00
7:35 PM,77.0,21.2,12,30.18,10.0,West,10.4,-,N/A,,Clear,280,2013-08-07 01:35:00
7:55 PM,73.4,23.0,15,30.19,10.0,West,9.2,-,N/A,,Clear,280,2013-08-07 01:55:00
8:15 PM,71.6,23.0,16,30.19,10.0,West,8.1,-,N/A,,Clear,280,2013-08-07 02:15:00
8:35 PM,66.2,24.8,21,30.19,10.0,West,9.2,-,N/A,,Clear,270,2013-08-07 02:35:00
8:55 PM,64.4,26.6,24,30.20,10.0,WNW,8.1,-,N/A,,Clear,300,2013-08-07 02:55:00
9:15 PM,60.8,30.2,31,30.21,10.0,WNW,5.8,-,N/A,,Clear,300,2013-08-07 03:15:00
9:35 PM,59.0,30.2,34,30.21,10.0,WNW,5.8,-,N/A,,Clear,300,2013-08-07 03:35:00
9:55 PM,59.0,30.2,34,30.22,10.0,West,6.9,-,N/A,,Clear,280,2013-08-07 03:55:00
10:15 PM,53.6,30.2,41,30.22,10.0,NW,4.6,-,N/A,,Clear,320,2013-08-07 04:15:00
10:35 PM,53.6,32.0,44,30.22,10.0,NW,5.8,-,N/A,,Clear,320,2013-08-07 04:35:00
10:55 PM,55.4,30.2,38,30.22,10.0,NW,8.1,-,N/A,,Clear,320,2013-08-07 04:55:00
11:15 PM,51.8,32.0,47,30.23,10.0,Calm,Calm,-,N/A,,Clear,0,2013-08-07 05:15:00
11:35 PM,50.0,32.0,50,30.23,10.0,West,3.5,-,N/A,,Clear,270,2013-08-07 05:35:00
11:55 PM,50.0,30.2,47,30.23,10.0,WNW,3.5,-,N/A,,Clear,290,2013-08-07 05:55:00